[[{"header":{"parameterUnit":"m.s-1","parameterCategory":1,"la1":30.2991,"la2":30.254,"lo1":-89.0895,"lo2":-89.0444,"dy":0.0017,"dx":0.0017,"nx":28,"ny":28,"refTime":"2024-03-27T03:00:00:Z","depth":0,"parameterNumber":2,"parameterNumberName":"U-component_of_WINDS"},"data":[0,0,0,0,0,0,0,0,0,0,0,0,0,0,0,0,0,0,0,0,0,0,0,0,0,0,0,0,0,0,0,0,0,0,0,0,0,0,0,0,0,0,0,0,0,0,0,0,0,0,0,0,0,0,0,0,0,0,0.724,0.724,0,0.7187,0.7186,0.7186,0.7175,0.7176,0.7176,0.7177,0.7119,0.7117,0.7115,0,0,0,0,0,0,0,0,0,0,0,0,0,0.7331,0.7329,0.724,0.724,0.7239,0.7187,0.7186,0.7185,0.7175,0.7176,0.7176,0.7177,0.712,0.7118,0.7115,0,0,0,0,0,0,0,0,0,0,0,0,0,0.7286,0.7329,0.724,0.7228,0.7226,0.7187,0.7186,0.7185,0.7175,0.7176,0.7176,0.7177,0.7121,0.7118,0.7115,0.7084,0,0,0.7106,0.7105,0,0,0,0,0,0,0,0,0.7288,0.7283,0.723,0.7228,0.7226,0.7188,0.7197,0.7151,0.7175,0.7194,0.7177,0.7177,0.7142,0.7137,0.7125,0.7081,0.7079,0.7106,0.7104,0.7103,0.7102,0,0,0,0,0,0,0,0.7292,0.7285,0.7219,0.7229,0.7227,0.7224,0.7218,0.7188,0.7165,0.7193,0.7192,0.7186,0.7141,0.7128,0.7124,0.7078,0.7106,0.7103,0.7102,0.71,0.7006,0.7005,0,0,0,0,0,0,0.7297,0.7287,0.7221,0.7217,0.726,0.7222,0.7215,0.72,0.7165,0.7161,0.7185,0.7186,0.7133,0.7127,0.7122,0.7083,0.7103,0.71,0.7099,0.7007,0.7006,0.7005,0,0,0,0,0,0,0.7299,0.7291,0.7223,0.7252,0.7243,0.7219,0.7202,0.7199,0.7186,0.716,0.7155,0.7177,0.7133,0.7126,0.7094,0.7081,0.7099,0.7096,0.7008,0.7006,0.7005,0.7005,0,0,0,0,0,0,0.7302,0.7292,0.7281,0.7252,0.7242,0.7196,0.7202,0.7197,0.7182,0.7181,0.7151,0.7146,0.7133,0.7098,0.7091,0.7077,0.7094,0.7009,0.7007,0.7006,0.7006,0.7004,0.7002,0,0,0,0,0,0.7305,0.7282,0.728,0.7272,0.7227,0.7195,0.7189,0.7175,0.7181,0.7168,0.7151,0.7147,0.7084,0.7095,0.7087,0.7072,0.7009,0.7007,0.7006,0.7007,0.7005,0.7002,0,0,0,0,0,0,0.7309,0.7278,0.7276,0.7243,0.7222,0.7194,0.7178,0.7173,0.715,0.715,0.7134,0.7127,0.7095,0.7081,0.7093,0.704,0.7047,0.7043,0.7051,0.7048,0.7046,0.7049,0.7092,0,0,0,0,0,0.7306,0.7284,0.7258,0.7232,0.7221,0.7202,0.7187,0.7179,0.7156,0.7147,0.7127,0.7105,0.708,0.7063,0.7039,0.7005,0.6997,0.6991,0.6989,0.6987,0.6984,0.6964,0.696,0.6999,0.6999,0.6999,0,0,0.7299,0.728,0.7267,0.7232,0.7215,0.7191,0.7194,0.7169,0.7151,0.7142,0.7111,0.7096,0.707,0.7036,0.702,0.7023,0.6972,0.6985,0.6984,0.6981,0.6962,0.6958,0.6955,0.6998,0.6998,0.6998,0,0,0.7275,0.7259,0.7235,0.7218,0.7192,0.7179,0.7174,0.7146,0.7136,0.7105,0.7098,0.7076,0.7034,0.7015,0.7,0.697,0.6965,0.6963,0.6952,0.6933,0.693,0.6927,0.6915,0.6911,0.696,0.696,0.696,0,0.727,0.7235,0.7223,0.7198,0.7182,0.7175,0.715,0.7134,0.7101,0.709,0.7094,0.7041,0.7023,0.6984,0.6977,0.6966,0.6958,0.6965,0.6931,0.6928,0.6926,0.6914,0.691,0.6959,0.6959,0.696,0.696,0,0.7229,0.7205,0.7189,0.7158,0.7141,0.7116,0.71,0.7084,0.7077,0.7064,0.7031,0.701,0.698,0.6971,0.6964,0.6932,0.6934,0.6935,0.6941,0.6922,0.6911,0.6906,0.6959,0.6959,0.6959,0.6959,0,0,0.7204,0.7168,0.7162,0.7148,0.712,0.71,0.7075,0.7048,0.7034,0.7012,0.699,0.6955,0.6956,0.6939,0.693,0.6913,0.689,0.6916,0.6915,0.691,0.6852,0.685,0.6845,0.6887,0.6886,0.6886,0.6853,0,0.7175,0.713,0.7119,0.7081,0.7058,0.7052,0.703,0.701,0.6997,0.6975,0.6961,0.6936,0.6939,0.6929,0.6913,0.6896,0.6877,0.6898,0.6865,0.6864,0.687,0.6839,0.6837,0.6808,0.6849,0.6848,0.6848,0,0.7135,0.7113,0.7073,0.7048,0.7038,0.7018,0.6992,0.6972,0.6949,0.6941,0.6922,0.6915,0.6888,0.6897,0.6859,0.6874,0.686,0.685,0.6848,0.6843,0.6853,0.6832,0.6798,0.6793,0.6841,0.6842,0.6842,0,0.7118,0.7079,0.705,0.7038,0.7009,0.6995,0.6982,0.696,0.6944,0.6921,0.6911,0.6885,0.6871,0.6851,0.6836,0.6845,0.6799,0.6807,0.679,0.6791,0.6779,0.678,0.6742,0.6774,0.6774,0.6774,0.6774,0,0.7086,0.7061,0.7042,0.7024,0.6996,0.6983,0.6956,0.6942,0.6923,0.6901,0.6895,0.6875,0.6858,0.6836,0.6824,0.6794,0.6788,0.678,0.6777,0.6779,0.678,0.6768,0.6769,0.6773,0.6773,0.6773,0.6773,0,0.7062,0.7049,0.7016,0.6991,0.6984,0.6965,0.6943,0.6925,0.6913,0.6885,0.6878,0.6859,0.6832,0.6817,0.6783,0.6775,0.6741,0.674,0.6749,0.6747,0.673,0.6731,0.6681,0.6674,0.6713,0.6712,0.6712,0,0.7042,0.7022,0.6996,0.6982,0.6969,0.6945,0.693,0.6917,0.6901,0.6874,0.6858,0.6832,0.6809,0.6767,0.6749,0.6723,0.672,0.6704,0.6716,0.6719,0.6717,0.6718,0.6715,0.6701,0.6701,0.6701,0.6701,0,0.7006,0.7,0.6978,0.6954,0.6935,0.6915,0.6895,0.6884,0.6868,0.685,0.6823,0.6806,0.6772,0.6745,0.6717,0.6703,0.6698,0.6698,0.6692,0.6693,0.6698,0.6694,0.6741,0.6698,0.6698,0.6699,0.6699,0.6699,0.6982,0.6964,0.6943,0.6918,0.6903,0.6884,0.6866,0.6852,0.6829,0.6801,0.6795,0.6767,0.6744,0.6708,0.6693,0.667,0.6672,0.6665,0.6662,0.666,0.6659,0.6704,0.6665,0.6665,0.6665,0.6665,0.6665,0,0.6944,0.6931,0.6908,0.6881,0.6862,0.6862,0.684,0.6823,0.6798,0.6778,0.6757,0.6726,0.67,0.6681,0.6654,0.6639,0.6637,0.6633,0.6632,0.6629,0.6659,0.6665,0.6635,0.6635,0.6635,0.6635,0.6635,0.6635,0.6922,0.6892,0.6884,0.6847,0.6833,0.6805,0.6793,0.6776,0.676,0.6726,0.6704,0.6693,0.6673,0.6645,0.6621,0.6616,0.6606,0.6602,0.6596,0.6624,0.6627,0.663,0.6636,0.66,0.66,0.6568,0.6568,0.6568]},{"header":{"parameterUnit":"m.s-1","parameterCategory":1,"la1":30.2991,"la2":30.254,"lo1":-89.0895,"lo2":-89.0444,"dy":0.0017,"dx":0.0017,"nx":28,"ny":28,"refTime":"2024-03-27T03:00:00:Z","depth":0,"parameterNumber":3,"parameterNumberName":"V-component_of_WINDS"},"data":[0,0,0,0,0,0,0,0,0,0,0,0,0,0,0,0,0,0,0,0,0,0,0,0,0,0,0,0,0,0,0,0,0,0,0,0,0,0,0,0,0,0,0,0,0,0,0,0,0,0,0,0,0,0,0,0,0,0,-5.8788,-5.879,0,-5.8964,-5.8966,-5.8968,-5.8916,-5.8913,-5.8909,-5.8906,-5.9083,-5.909,-5.9098,0,0,0,0,0,0,0,0,0,0,0,0,0,-5.8403,-5.841,-5.8788,-5.879,-5.8792,-5.8964,-5.8966,-5.8968,-5.8917,-5.8913,-5.8908,-5.8904,-5.908,-5.9089,-5.9099,0,0,0,0,0,0,0,0,0,0,0,0,0,-5.8574,-5.8413,-5.8787,-5.8787,-5.8789,-5.8963,-5.8966,-5.8969,-5.8918,-5.8912,-5.8907,-5.8902,-5.9077,-5.9088,-5.91,-5.9284,0,0,-5.9138,-5.9143,0,0,0,0,0,0,0,0,-5.8564,-5.8588,-5.8785,-5.8788,-5.879,-5.8913,-5.8895,-5.9075,-5.8919,-5.8869,-5.8906,-5.8899,-5.903,-5.9046,-5.9091,-5.9293,-5.93,-5.9139,-5.9146,-5.9151,-5.9155,0,0,0,0,0,0,0,-5.8552,-5.858,-5.8857,-5.8788,-5.8791,-5.8777,-5.8795,-5.8929,-5.8978,-5.8873,-5.887,-5.8891,-5.903,-5.9079,-5.9094,-5.9303,-5.9138,-5.9149,-5.9157,-5.9161,-5.9665,-5.9671,0,0,0,0,0,0,-5.8539,-5.8571,-5.8852,-5.8863,-5.8661,-5.8789,-5.8809,-5.8879,-5.8976,-5.8986,-5.8896,-5.8888,-5.9061,-5.908,-5.91,-5.9323,-5.9151,-5.9162,-5.9169,-5.9659,-5.9666,-5.9673,0,0,0,0,0,0,-5.8531,-5.8565,-5.8845,-5.8716,-5.875,-5.8801,-5.888,-5.8885,-5.8934,-5.8994,-5.9002,-5.8937,-5.9058,-5.9083,-5.9239,-5.9329,-5.9168,-5.9179,-5.9652,-5.9661,-5.967,-5.977,0,0,0,0,0,0,-5.8521,-5.8562,-5.8634,-5.8718,-5.8757,-5.8982,-5.8885,-5.8892,-5.8955,-5.8947,-5.9034,-5.9044,-5.9055,-5.9222,-5.9252,-5.9342,-5.9188,-5.9644,-5.9656,-5.9667,-5.9759,-5.9781,-5.9801,0,0,0,0,0,-5.8507,-5.8654,-5.8638,-5.8672,-5.8848,-5.8987,-5.901,-5.9022,-5.8963,-5.9034,-5.9073,-5.9041,-5.9314,-5.9238,-5.9271,-5.9367,-5.9638,-5.9653,-5.9666,-5.975,-5.9777,-5.98,0,0,0,0,0,0,-5.8578,-5.8665,-5.8648,-5.8827,-5.89,-5.8978,-5.9069,-5.905,-5.9141,-5.9129,-5.9138,-5.9158,-5.9319,-5.9358,-5.9272,-5.955,-5.9467,-5.9488,-5.9519,-5.9546,-5.9566,-5.9554,-5.9199,0,0,0,0,0,-5.8614,-5.8722,-5.8791,-5.8942,-5.898,-5.9019,-5.908,-5.9082,-5.9158,-5.9189,-5.9238,-5.9313,-5.9415,-5.9482,-5.958,-5.9763,-5.9782,-5.9846,-5.9866,-5.9883,-5.9902,-6.0003,-6.0032,-5.9718,-5.9718,-5.9718,0,0,-5.8691,-5.8752,-5.8818,-5.8958,-5.9015,-5.9126,-5.9045,-5.9165,-5.9246,-5.9206,-5.9358,-5.9397,-5.948,-5.9651,-5.9729,-5.9689,-5.9993,-5.9901,-5.9914,-5.9924,-6.002,-6.005,-6.0076,-5.9727,-5.9726,-5.9724,0,0,-5.8887,-5.8943,-5.9076,-5.9135,-5.9224,-5.9248,-5.928,-5.9362,-5.9387,-5.9539,-5.9511,-5.9607,-5.9783,-5.9844,-5.9898,-6.0117,-6.0091,-6.0148,-6.0258,-6.0356,-6.0381,-6.0403,-6.0482,-6.051,-6.0166,-6.0166,-6.0166,0,-5.897,-5.9137,-5.9146,-5.9269,-5.9331,-5.9301,-5.9436,-5.9492,-5.9607,-5.965,-5.9604,-5.9825,-5.9878,-6.0064,-6.0117,-6.0161,-6.0198,-6.0139,-6.0377,-6.0399,-6.0419,-6.0495,-6.0525,-6.0173,-6.0172,-6.0171,-6.0171,0,-5.9236,-5.9351,-5.9447,-5.9561,-5.9634,-5.9761,-5.979,-5.9862,-5.9858,-5.9887,-6.0042,-6.0105,-6.0216,-6.0259,-6.0256,-6.0445,-6.0417,-6.0374,-6.029,-6.0456,-6.0527,-6.0556,-6.0182,-6.018,-6.0178,-6.0176,0,0,-5.9483,-5.96,-5.9636,-5.9687,-5.9782,-5.9871,-5.9997,-6.0106,-6.0168,-6.0248,-6.0354,-6.0503,-6.0464,-6.0525,-6.0528,-6.0614,-6.0785,-6.056,-6.0562,-6.0601,-6.0998,-6.1032,-6.1065,-6.0768,-6.0773,-6.0778,-6.0991,0,-5.9688,-5.9912,-5.9924,-6.0126,-6.0233,-6.0206,-6.0315,-6.0385,-6.0415,-6.0509,-6.0542,-6.0649,-6.0588,-6.0625,-6.0709,-6.0747,-6.0865,-6.0731,-6.0866,-6.0871,-6.0849,-6.1102,-6.1138,-6.1337,-6.1019,-6.1024,-6.1027,0,-5.9958,-6.0048,-6.0262,-6.0342,-6.0388,-6.0486,-6.0588,-6.0678,-6.0756,-6.0771,-6.084,-6.0831,-6.0959,-6.087,-6.1047,-6.0955,-6.1011,-6.1038,-6.1046,-6.106,-6.0961,-6.1125,-6.14,-6.1431,-6.1071,-6.1068,-6.1064,0,-6.0119,-6.0293,-6.0444,-6.0488,-6.0586,-6.0656,-6.0699,-6.0772,-6.0837,-6.0924,-6.0967,-6.1067,-6.1123,-6.1201,-6.1218,-6.1152,-6.1396,-6.1308,-6.1412,-6.1412,-6.1466,-6.1463,-6.1757,-6.15,-6.1499,-6.1498,-6.1498,0,-6.0348,-6.048,-6.0518,-6.0611,-6.0758,-6.0769,-6.0914,-6.0952,-6.1017,-6.1117,-6.1098,-6.1191,-6.1208,-6.1304,-6.1319,-6.1463,-6.1488,-6.1504,-6.1507,-6.1507,-6.1506,-6.1545,-6.1533,-6.1506,-6.1505,-6.1503,-6.1502,0,-6.0553,-6.0584,-6.0747,-6.0825,-6.0848,-6.0953,-6.102,-6.1109,-6.1136,-6.1262,-6.1292,-6.1336,-6.1448,-6.1473,-6.1606,-6.1616,-6.1788,-6.1776,-6.1763,-6.1763,-6.1866,-6.1857,-6.2197,-6.2243,-6.1954,-6.1957,-6.1959,0,-6.0699,-6.08,-6.089,-6.0956,-6.1003,-6.1109,-6.1176,-6.1191,-6.1261,-6.1357,-6.1434,-6.1545,-6.1635,-6.1816,-6.1859,-6.1961,-6.1952,-6.2064,-6.1967,-6.1965,-6.1956,-6.195,-6.1961,-6.2083,-6.2086,-6.2089,-6.2091,0,-6.0954,-6.0964,-6.1062,-6.1165,-6.1246,-6.1327,-6.1405,-6.1459,-6.1484,-6.1564,-6.168,-6.1749,-6.1886,-6.1997,-6.2099,-6.2142,-6.2122,-6.2121,-6.2151,-6.2153,-6.2142,-6.2151,-6.1815,-6.2113,-6.2111,-6.2109,-6.2108,-6.2107,-6.1135,-6.1225,-6.1302,-6.1412,-6.1472,-6.1545,-6.1633,-6.1672,-6.1769,-6.1883,-6.1885,-6.2012,-6.2086,-6.2222,-6.2271,-6.2369,-6.2335,-6.2377,-6.2389,-6.24,-6.241,-6.2125,-6.2388,-6.2387,-6.2386,-6.2386,-6.2386,0,-6.1391,-6.144,-6.154,-6.165,-6.1736,-6.171,-6.1794,-6.1868,-6.198,-6.2052,-6.2141,-6.2274,-6.2381,-6.2432,-6.2538,-6.2607,-6.26,-6.2634,-6.263,-6.2641,-6.2434,-6.2399,-6.2638,-6.2638,-6.2638,-6.2638,-6.2638,-6.2638,-6.1535,-6.1685,-6.1704,-6.1883,-6.193,-6.2056,-6.2106,-6.2173,-6.2231,-6.2382,-6.2471,-6.2504,-6.2567,-6.2677,-6.2774,-6.2786,-6.2826,-6.2866,-6.2874,-6.268,-6.2655,-6.263,-6.2597,-6.2874,-6.2874,-6.3072,-6.3074,-6.3075]}]]